Location: *
(17.3280°S, 114.7300°W)
Time: 06:27:21
(UTC+00:00)

Palapa 6 Rocket - Pass Details

Date: 05 August 2020
Orbit: 485 x 1217 km, 22.7° (Epoch: 20 September)

Event Time Altitude Azimuth Distance (km) Brightness Sun altitude
Exits shadow 12:24:49 31° 352° (N) 959 4.0 -23.5°
Maximum altitude 12:25:41 35° 20° (NNE) 870 4.0 -23.3°
Drops below altitude 10° 12:29:14 10° 87° (E) 1,701 6.4 -22.5°
Sets 12:31:29 0° 96° (E) 2,553 7.5 -21.9°
